星链-35705(STARLINK-35705)

导读

STARLINK-35705是美国太空探索技术公司Starlink星座的成员,于2025年12月11日发射升空,归属美国所有。Starlink星座旨在构建全球卫星互联网组网,为全球范围偏远地区、海洋空域等地面网络覆盖盲区提供高速低延迟宽带通信服务,该卫星入轨将进一步扩展星座服务覆盖范围与容量,提升全球卫星互联网服务能力。

基本信息
目录编号:
67039
目录名称:
STARLINK-35705
国际标识:
2025-294K
轨道中心:
EARTH
卫星名称:
星链-35705
卫星全名:
星链-35705(STARLINK-35705)
卫星状态:
在轨 (已飞行267 天)
发射日期:
2025-12-11 UTC
国别 :
美国 (US)
星等 :
--
轨道信息
数据来源 国际轨道数据 AOE轨道数据
星历时间 2026-09-04T08:23:23+0800
17小时前
查看轨道信息
2026-08-30T22:00:00+0800
5天前
查看轨道信息
半长轴 6861.171km 6861.14km
偏心率 0.0001868 0.0001627
轨道倾角 43.004° 43.001°
近地点辐角 284.319° 283.826°
升交点赤经 110.834° 135.869°
平近点角 75.746° 149.822°
近地点 481.752km 481.886km
远地点 484.316km 484.12km
周期 94.266分钟 94.266分钟
每日圈数 15.275853 15.275956
详细信息
固有亮度:
5
最大亮度:
2.5
卫星平台:
Starlink V1.0
覆盖范围:
全球
运营商:
太空探索技术公司
运营商所在国:
美国
制造商(研发单位):
太空探索技术公司
制造商所在国:
美国
使用方式:
暂无
卫星简介
Starlink 计划是 SpaceX 推出的全球卫星互联网项目,通过发射低轨道卫星,为全球尤其是偏远地区提供高速、低延迟的互联网服务。自 2019 年起,Starlink 已部署数千颗卫星,旨在缩小全球数字鸿沟,推动互联网普及。该项目还为军事、航空等行业提供通信支持,带来广泛经济效益。
2D轨道图
3D轨道图
轨道高度分析图
轨道倾角分析图
轨道综合分析图
查看轨道综合分析图
交会数据列表
事件ID 空间交会对象 最接近时刻(TCA) 交会距离 交会风险概率(CRP) 交会风险指数(CRI) 操作
CDM_260906-214305-548406-703921
2026-09-06T
21:43:54+0000
0.757 km
远距离
3.243487E-5 中风险 0.65
CDM_260906-231805-548406-703921
2026-09-06T
23:18:03+0000
1.961 km
极远距离
1.543853E-6 低风险 0.39
CDM_260904-215505-750706-703921
2026-09-04T
21:55:35+0000
2.229 km
极远距离
7.526734E-7 极低风险 0.33